Wind_Speed
8 8 7 7 7 7 7 7 7 8 8 9 8 8 9 9 9 10 10 10 11 11 11 12 12 13 13 14 14 14 15 15 15 15 15 15 15 15 15 16 16 16 16
9 9 8 8 8 7 7 7 8 9 10 10 9 9 9 10 10 10 10 11 12 12 12 13 13 14 15 15 15 16 16 15 15 16 16 16 16 16 17 18 18 18 18
10 11 10 10 9 9 8 8 9 9 10 10 10 10 10 11 11 12 11 11 13 13 14 14 14 15 15 16 17 17 17 17 17 17 17 17 18 18 19 19 19 20 19
11 12 10 11 10 10 9 9 9 10 11 11 11 12 12 12 12 13 13 13 14 14 15 16 16 16 17 17 18 19 19 19 19 19 19 19 19 20 21 21 21 21 20
13 12 12 12 12 11 11 11 11 11 12 12 12 12 13 13 14 14 14 15 16 16 17 18 18 19 18 18 18 19 21 21 21 21 21 21 21 21 22 22 22 22 22
14 14 14 14 14 13 13 13 14 14 13 14 14 14 14 15 15 16 16 17 17 18 19 19 19 20 20 20 21 21 21 22 22 22 22 22 22 22 23 23 23 24 24
17 17 16 16 16 16 15 15 15 15 16 15 16 15 15 15 16 17 18 18 19 19 20 21 21 21 21 22 22 23 22 23 23 23 24 24 24 24 24 24 24 25 26
19 19 19 18 18 17 17 17 17 17 18 17 17 17 17 17 17 18 19 20 21 21 22 22 23 23 23 23 24 24 24 24 25 25 24 24 25 25 26 26 26 26 26
21 21 20 20 18 18 18 18 18 19 19 19 19 19 19 19 20 20 21 22 23 24 24 24 24 24 24 25 25 25 26 26 26 27 26 26 26 26 26 27 26 27 27
22 23 22 20 19 19 19 20 21 21 21 21 21 21 21 22 22 23 24 25 25 25 26 25 25 26 26 26 26 27 27 27 28 28 28 27 27 27 27 27 27 27 27
24 24 23 22 22 22 22 22 23 23 23 23 23 23 24 25 25 25 26 27 27 27 28 27 27 27 27 28 28 28 28 28 28 28 28 28 28 28 28 28 28 28 28
25 25 24 23 23 24 25 25 25 25 25 25 25 25 25 26 27 27 27 28 28 28 28 29 29 30 29 30 30 30 30 30 29 29 29 29 29 29 29 29 29 29 29
27 27 26 26 26 26 26 27 26 26 27 26 26 26 26 27 28 28 29 29 30 30 30 31 31 30 30 31 31 31 30 30 30 31 31 30 30 29 30 30 30 30 29
29 28 28 28 28 28 27 27 27 27 27 27 28 28 28 29 29 30 31 31 31 31 32 33 32 31 31 30 31 31 32 31 32 32 31 31 31 30 30 30 30 30 29
29 29 29 29 28 28 28 28 29 29 29 29 29 30 30 31 32 33 33 32 33 33 33 33 33 33 31 31 31 31 32 32 32 32 32 32 32 32 32 31 30 30 29
30 30 29 29 30 30 30 30 30 30 31 31 31 31 32 32 33 33 33 33 33 33 33 33 33 32 32 31 31 32 32 32 32 32 32 33 32 31 31 30 30 30 30
30 30 30 30 31 31 31 32 32 31 32 32 32 33 33 34 34 34 34 33 33 33 33 32 32 31 31 32 32 32 32 31 31 32 32 32 32 31 31 30 30 31 31
30 30 30 30 31 31 32 32 32 32 32 33 32 33 34 34 33 32 32 32 33 33 33 33 32 32 32 32 32 32 32 32 32 32 32 32 32 32 32 31 31 32 32
31 31 31 31 31 32 32 32 32 32 33 33 33 33 33 33 32 32 32 32 33 33 33 32 32 32 32 32 32 32 33 33 33 33 33 33 33 32 32 32 32 31 31
30 30 31 31 32 32 32 32 33 33 33 33 33 33 32 32 32 32 32 33 34 34 33 33 34 33 33 33 33 33 33 34 34 33 33 33 33 33 32 32 32 31 31
30 31 31 32 32 32 33 33 33 33 33 33 33 32 33 33 33 34 34 34 34 35 34 34 34 34 34 34 34 34 34 34 34 33 33 33 34 33 32 32 32 32 32
31 31 32 32 32 33 33 33 33 33 33 33 32 33 33 34 34 34 35 36 35 34 34 34 33 34 34 34 34 35 34 34 34 34 34 34 34 34 33 33 32 32 32
31 32 32 33 33 32 32 32 33 33 33 34 34 33 34 34 35 35 35 35 34 34 34 34 34 34 34 35 35 36 35 35 35 35 35 35 34 34 33 33 33 33 33
31 31 32 32 32 33 32 32 33 33 34 34 34 34 34 34 34 35 35 35 34 34 34 34 35 35 35 36 36 36 36 35 35 35 34 33 33 33 33 33 32 32 32
31 32 31 32 32 32 31 32 33 33 34 34 34 34 34 34 35 36 35 35 35 35 34 34 34 35 36 37 37 37 36 36 35 34 34 34 33 33 33 32 31 31 31
31 31 31 30 30 30 30 30 32 33 34 34 34 34 34 35 35 34 34 34 35 35 35 35 36 36 37 37 36 35 35 35 35 34 34 34 34 33 33 32 31 31 31
Wind_Direction
329 328 330 331 329 330 339 345 343 343 344 340 332 330 333 336 335 334 332 330 330 329 326 322 321 320 319 319 319 319 316 315 314 313 309 305 304 303 304 305 305 305 305
317 318 317 319 324 324 327 333 332 332 335 334 328 326 328 330 330 328 326 327 328 328 326 323 320 319 318 317 317 317 315 314 313 313 311 307 305 304 305 305 305 305 303
304 309 309 313 316 319 319 322 325 330 330 327 325 323 323 326 325 325 321 322 326 326 326 324 320 316 314 314 314 313 311 311 310 309 309 307 306 305 304 304 303 303 303
296 297 298 303 308 309 312 318 321 325 327 325 320 321 320 322 321 321 321 319 320 320 320 321 319 314 310 310 310 309 309 308 307 306 306 304 303 302 302 302 302 302 302
289 291 295 297 299 299 302 307 310 313 316 316 316 315 316 316 315 314 316 315 315 317 318 318 318 315 308 308 310 310 308 307 306 305 304 302 301 301 302 302 301 300 301
287 288 289 292 293 290 294 298 301 304 306 308 308 309 312 311 308 307 308 309 310 311 313 314 314 313 311 311 311 311 311 311 309 307 305 302 300 300 301 301 300 300 301
283 284 285 286 287 286 286 291 295 298 299 300 300 301 304 306 305 303 303 304 307 310 311 311 311 311 310 310 311 310 309 309 309 309 308 307 303 302 302 302 301 301 301
282 283 283 281 283 283 283 286 291 291 294 295 296 297 299 301 300 300 301 303 304 306 308 308 308 307 307 308 309 309 308 307 308 308 309 309 307 303 302 301 302 301 301
281 283 284 283 282 282 281 283 287 289 289 290 292 294 295 297 297 298 298 300 301 303 304 305 305 305 304 304 305 306 305 305 306 307 307 307 307 304 301 300 300 300 300
280 281 284 282 281 282 283 284 286 286 286 287 289 291 292 293 294 296 297 298 299 300 301 302 303 303 303 304 304 304 303 301 301 303 304 304 304 302 300 300 299 299 300
278 278 281 280 279 281 282 283 284 285 286 286 288 289 290 291 293 294 295 298 298 299 300 301 303 303 303 303 302 302 301 299 299 301 302 302 302 301 299 298 298 298 299
277 279 279 278 280 280 280 281 282 282 284 287 287 287 289 291 293 293 293 295 297 298 299 300 301 302 301 302 301 302 301 300 299 298 299 300 300 299 299 298 298 299 298
276 278 278 278 278 280 282 283 284 284 285 285 286 286 287 289 291 293 294 294 295 296 297 298 299 299 300 301 301 301 302 300 299 297 298 298 297 297 297 297 297 298 297
275 277 278 279 279 280 280 284 286 286 287 287 288 287 287 288 289 291 293 293 293 295 296 296 297 296 298 299 299 300 301 299 298 298 298 298 297 296 297 296 295 297 298
274 277 278 278 279 280 282 284 285 286 287 288 288 288 289 290 289 289 290 291 292 293 295 295 295 296 296 297 298 298 299 299 298 298 298 298 297 296 296 296 296 296 297
274 276 277 278 279 280 281 282 283 285 287 288 288 287 289 290 290 290 290 290 292 294 295 295 296 295 295 296 297 297 298 298 299 299 299 299 298 297 296 295 295 296 296
272 274 275 277 278 281 281 282 283 284 285 287 287 288 288 289 289 290 290 290 293 294 294 295 294 294 294 295 296 297 298 298 298 299 299 298 297 296 295 294 294 295 295
270 273 275 277 279 280 282 283 284 285 286 286 287 288 289 290 291 292 291 290 292 294 295 295 294 293 294 295 295 296 296 296 297 297 298 297 295 295 294 293 293 294 295
270 273 276 278 279 281 282 283 284 285 286 286 286 287 289 289 290 291 292 292 293 294 294 294 294 294 294 295 296 296 296 296 296 296 296 296 296 294 293 293 293 293 294
271 273 276 278 280 281 282 283 284 285 286 286 286 287 288 287 288 290 291 293 294 294 295 295 294 294 294 294 295 296 297 296 296 296 295 295 294 293 293 292 291 292 293
272 274 276 278 279 281 283 285 286 286 286 286 286 287 288 287 288 289 290 292 293 294 295 294 294 294 294 294 295 295 295 295 294 295 295 294 293 294 294 293 292 292 293
272 274 276 278 280 282 284 284 284 285 286 287 287 288 288 288 289 289 290 291 293 294 295 294 293 294 294 294 294 294 293 293 294 294 295 294 292 291 291 292 292 293 294
272 274 276 279 281 282 283 284 285 286 287 289 290 288 288 288 288 289 289 291 291 292 294 294 293 293 293 294 294 293 293 293 294 293 294 293 293 292 291 291 292 292 293
272 274 275 278 281 281 281 283 285 286 289 289 290 290 290 289 289 290 291 291 290 291 292 293 293 293 293 293 293 293 293 293 294 294 295 295 293 291 291 291 292 292 292
272 275 276 278 281 280 281 284 285 287 288 290 291 292 291 291 291 291 291 290 290 290 290 291 292 293 294 294 293 293 293 292 292 292 293 294 293 291 290 289 289 290 291
275 276 277 279 280 281 284 287 288 289 290 291 292 292 292 292 293 293 292 290 289 290 291 292 293 293 294 295 294 293 292 291 291 291 291 292 292 290 290 289 288 288 288
Height
5900 5899 5898 5897 5897 5896 5896 5895 5895 5894 5893 5892 5891 5890 5890 5889 5888 5887 5886 5885 5884 5883 5881 5880 5879 5878 5876 5874 5872 5870 5869 5867 5866 5864 5862 5861 5859 5858 5856 5855 5853 5851 5850
5899 5898 5897 5896 5896 5895 5895 5894 5894 5893 5892 5891 5890 5890 5889 5888 5887 5886 5885 5884 5883 5881 5880 5878 5877 5875 5874 5872 5870 5868 5866 5864 5863 5861 5859 5857 5856 5854 5853 5851 5849 5847 5846
5897 5896 5895 5895 5894 5894 5893 5893 5892 5891 5891 5890 5889 5888 5888 5887 5886 5885 5883 5882 5880 5879 5877 5876 5874 5872 5871 5869 5867 5865 5863 5861 5860 5858 5856 5854 5852 5850 5849 5847 5845 5843 5841
5894 5894 5894 5893 5893 5892 5891 5891 5890 5890 5889 5888 5888 5887 5886 5885 5884 5883 5881 5880 5878 5876 5875 5873 5871 5869 5867 5865 5864 5862 5860 5858 5856 5854 5852 5850 5848 5846 5844 5842 5840 5838 5836
5891 5891 5891 5890 5890 5889 5889 5889 5888 5887 5887 5886 5885 5885 5884 5883 5882 5880 5879 5877 5876 5874 5872 5870 5868 5865 5863 5861 5860 5858 5856 5854 5852 5850 5848 5846 5844 5841 5839 5837 5835 5833 5831
5887 5887 5888 5887 5886 5886 5886 5886 5885 5885 5884 5883 5882 5882 5881 5879 5878 5877 5876 5874 5873 5871 5869 5867 5865 5863 5860 5858 5856 5854 5852 5849 5847 5845 5842 5840 5838 5836 5834 5832 5830 5828 5825
5883 5882 5883 5883 5882 5882 5882 5882 5882 5881 5881 5880 5879 5878 5877 5876 5875 5874 5872 5871 5869 5867 5865 5863 5861 5859 5856 5854 5852 5849 5847 5844 5842 5840 5837 5835 5832 5830 5828 5826 5824 5821 5819
5879 5878 5878 5878 5878 5878 5877 5877 5877 5877 5876 5876 5875 5874 5873 5872 5870 5869 5868 5866 5865 5863 5861 5858 5856 5854 5852 5849 5847 5844 5842 5839 5837 5834 5832 5829 5827 5824 5822 5820 5818 5815 5813
5874 5873 5873 5872 5872 5872 5872 5872 5872 5872 5871 5871 5870 5869 5868 5867 5865 5864 5862 5861 5859 5857 5855 5853 5850 5848 5846 5844 5841 5839 5836 5834 5831 5828 5825 5823 5821 5818 5816 5813 5811 5809 5806
5869 5868 5868 5867 5868 5867 5867 5867 5867 5866 5866 5865 5864 5863 5862 5861 5860 5858 5856 5855 5853 5851 5849 5847 5844 5842 5840 5837 5835 5832 5830 5827 5825 5822 5819 5817 5814 5812 5809 5807 5804 5802 5799
5863 5863 5862 5862 5862 5862 5862 5861 5861 5860 5859 5858 5857 5857 5856 5855 5854 5852 5850 5848 5846 5844 5842 5840 5838 5836 5833 5830 5828 5825 5823 5820 5818 5815 5812 5810 5807 5805 5802 5799 5797 5794 5792
5857 5857 5855 5855 5855 5855 5855 5855 5854 5853 5853 5852 5851 5850 5849 5848 5847 5845 5843 5841 5839 5837 5835 5833 5831 5829 5826 5823 5821 5818 5815 5812 5810 5807 5805 5803 5800 5797 5795 5792 5789 5787 5784
5850 5850 5850 5849 5849 5848 5848 5848 5847 5846 5845 5845 5844 5843 5842 5841 5839 5838 5835 5833 5831 5829 5827 5825 5823 5821 5818 5816 5813 5810 5807 5804 5802 5799 5797 5795 5792 5789 5787 5784 5782 5779 5776
5843 5843 5843 5842 5842 5841 5841 5840 5840 5839 5838 5837 5836 5835 5834 5833 5832 5830 5827 5826 5824 5821 5819 5817 5814 5812 5810 5807 5805 5802 5799 5796 5793 5791 5788 5786 5784 5781 5779 5776 5773 5771 5768
5836 5836 5835 5835 5834 5834 5833 5833 5832 5832 5830 5830 5828 5827 5826 5825 5823 5821 5818 5817 5815 5813 5810 5808 5805 5803 5801 5798 5796 5793 5790 5788 5785 5782 5780 5777 5775 5773 5770 5768 5765 5762 5760
5828 5828 5828 5827 5827 5826 5825 5825 5824 5823 5822 5821 5820 5818 5817 5816 5814 5812 5810 5807 5805 5803 5801 5798 5796 5794 5792 5789 5787 5784 5782 5779 5776 5774 5771 5768 5766 5763 5761 5759 5756 5754 5752
5820 5820 5820 5820 5819 5818 5817 5816 5815 5815 5813 5812 5811 5809 5808 5806 5804 5802 5799 5797 5795 5793 5791 5789 5787 5785 5783 5780 5777 5775 5773 5770 5768 5765 5762 5759 5757 5754 5752 5750 5747 5745 5743
5812 5812 5812 5812 5811 5810 5809 5808 5807 5806 5805 5803 5801 5800 5798 5796 5794 5792 5790 5788 5786 5784 5782 5780 5778 5775 5773 5770 5768 5765 5763 5760 5758 5755 5753 5750 5747 5745 5742 5740 5738 5736 5733
5804 5804 5804 5803 5802 5801 5800 5799 5798 5797 5795 5793 5792 5791 5789 5787 5785 5783 5781 5779 5777 5775 5773 5770 5768 5766 5763 5760 5758 5756 5753 5751 5748 5745 5743 5740 5738 5735 5733 5731 5728 5726 5724
5796 5796 5795 5794 5794 5793 5791 5790 5789 5787 5785 5784 5782 5781 5779 5777 5776 5774 5772 5770 5768 5765 5763 5760 5758 5756 5753 5751 5748 5746 5743 5741 5738 5736 5733 5731 5728 5725 5723 5721 5718 5716 5714
5787 5787 5786 5786 5785 5784 5783 5781 5779 5777 5775 5774 5772 5771 5769 5768 5766 5764 5763 5761 5758 5756 5753 5750 5748 5745 5743 5741 5738 5736 5733 5731 5728 5726 5723 5720 5718 5715 5713 5710 5708 5706 5704
5779 5778 5777 5777 5776 5775 5774 5772 5770 5768 5766 5764 5762 5760 5759 5758 5756 5754 5752 5750 5748 5745 5743 5740 5738 5736 5733 5731 5728 5726 5723 5720 5718 5715 5713 5710 5707 5705 5703 5701 5699 5697 5694
5769 5769 5769 5768 5767 5766 5764 5763 5761 5759 5757 5754 5752 5750 5749 5748 5746 5744 5742 5739 5737 5735 5732 5730 5728 5726 5724 5721 5718 5716 5713 5710 5707 5705 5702 5699 5697 5694 5692 5690 5688 5686 5684
5760 5760 5759 5758 5758 5756 5755 5754 5752 5750 5748 5746 5744 5742 5740 5738 5736 5733 5731 5729 5727 5725 5722 5720 5718 5716 5713 5711 5708 5705 5702 5699 5696 5694 5691 5688 5686 5684 5682 5680 5678 5676 5674
5751 5751 5750 5749 5748 5746 5745 5744 5742 5741 5739 5737 5735 5732 5730 5728 5726 5723 5721 5719 5717 5715 5712 5710 5708 5705 5703 5700 5697 5694 5691 5688 5685 5683 5680 5678 5675 5673 5671 5670 5668 5666 5663
5743 5742 5741 5740 5739 5738 5737 5736 5734 5732 5729 5727 5725 5723 5721 5718 5716 5713 5711 5709 5707 5705 5702 5700 5697 5695 5692 5689 5686 5683 5680 5677 5675 5672 5670 5668 5665 5663 5661 5659 5658 5656 5654